timestamp,wind_dir_avg,wind_spd_max_dir,wind_spd_avg,wind_spd_gust,battery_voltage,lat,long
2018-01-25 00:00:00+00:00,243.0,240.0,8.61,9.86,,47.59359,-54.27349
2018-01-25 00:10:00+00:00,244.0,250.0,8.6,10.12,,47.59359,-54.27349
2018-01-25 00:20:00+00:00,247.0,245.0,9.56,10.31,,47.59359,-54.27349
2018-01-25 00:30:00+00:00,251.0,249.0,8.83,10.67,,47.59359,-54.27349
2018-01-25 00:40:00+00:00,255.0,252.0,7.87,9.04,,47.59359,-54.27349
2018-01-25 00:50:00+00:00,250.0,255.0,9.53,11.01,,47.59359,-54.27349
2018-01-25 01:00:00+00:00,242.0,256.0,8.21,9.66,,47.59359,-54.27349
2018-01-25 01:10:00+00:00,238.0,233.0,8.33,9.63,,47.59359,-54.27349
2018-01-25 01:20:00+00:00,235.0,233.0,7.62,8.99,,47.59359,-54.27349
2018-01-25 01:30:00+00:00,240.0,235.0,9.02,10.28,,47.59359,-54.27349
2018-01-25 01:40:00+00:00,242.0,238.0,8.76,11.07,,47.59359,-54.27349
2018-01-25 01:50:00+00:00,243.0,255.0,8.29,10.67,,47.59359,-54.27349
2018-01-25 02:00:00+00:00,238.0,238.0,8.57,9.42,,47.59359,-54.27349
2018-01-25 02:10:00+00:00,255.0,254.0,9.88,11.3,,47.59359,-54.27349
2018-01-25 02:20:00+00:00,239.0,234.0,7.26,8.38,,47.59359,-54.27349
2018-01-25 02:30:00+00:00,229.0,230.0,8.19,9.25,,47.59359,-54.27349
2018-01-25 02:40:00+00:00,231.0,230.0,9.76,10.88,,47.59359,-54.27349
2018-01-25 02:50:00+00:00,237.0,234.0,7.81,8.99,,47.59359,-54.27349
2018-01-25 03:00:00+00:00,245.0,241.0,8.64,11.17,,47.59359,-54.27349
2018-01-25 03:10:00+00:00,239.0,237.0,7.91,9.09,,47.59359,-54.27349
2018-01-25 03:20:00+00:00,237.0,234.0,8.75,10.25,,47.59359,-54.27349
2018-01-25 03:30:00+00:00,236.0,237.0,10.26,11.8,,47.59359,-54.27349
2018-01-25 03:40:00+00:00,232.0,226.0,8.1,9.9,,47.59359,-54.27349
2018-01-25 03:50:00+00:00,231.0,229.0,8.7,10.23,,47.59359,-54.27349
2018-01-25 04:00:00+00:00,233.0,237.0,10.51,12.14,,47.59359,-54.27349
2018-01-25 04:10:00+00:00,237.0,238.0,9.89,11.75,,47.59359,-54.27349
2018-01-25 04:20:00+00:00,237.0,238.0,10.2,12.24,,47.59359,-54.27349
2018-01-25 04:30:00+00:00,234.0,230.0,11.4,12.72,,47.59359,-54.27349
2018-01-25 04:40:00+00:00,239.0,235.0,11.03,12.44,,47.59359,-54.27349
2018-01-25 04:50:00+00:00,242.0,246.0,10.6,12.01,,47.59359,-54.27349
2018-01-25 05:00:00+00:00,236.0,234.0,10.14,11.76,,47.59359,-54.27349
2018-01-25 05:10:00+00:00,230.0,228.0,9.72,10.99,,47.59359,-54.27349
2018-01-25 05:20:00+00:00,243.0,239.0,11.99,14.33,,47.59359,-54.27349
2018-01-25 05:30:00+00:00,241.0,238.0,11.6,13.71,,47.59359,-54.27349
2018-01-25 05:40:00+00:00,239.0,237.0,9.69,11.34,,47.59359,-54.27349
2018-01-25 05:50:00+00:00,234.0,229.0,10.1,12.29,,47.59359,-54.27349
2018-01-25 06:00:00+00:00,246.0,239.0,10.74,12.59,,47.59359,-54.27349
2018-01-25 06:10:00+00:00,251.0,251.0,10.33,12.15,,47.59359,-54.27349
2018-01-25 06:20:00+00:00,248.0,247.0,11.15,13.61,,47.59359,-54.27349
2018-01-25 06:30:00+00:00,251.0,251.0,13.1,15.06,,47.59359,-54.27349
2018-01-25 06:40:00+00:00,240.0,233.0,12.19,14.18,,47.59359,-54.27349
2018-01-25 06:50:00+00:00,249.0,250.0,11.11,13.58,,47.59359,-54.27349
2018-01-25 07:00:00+00:00,251.0,254.0,11.81,13.85,,47.59359,-54.27349
2018-01-25 07:10:00+00:00,262.0,266.0,10.73,12.13,,47.59359,-54.27349
2018-01-25 07:20:00+00:00,261.0,265.0,11.12,12.8,,47.59359,-54.27349
2018-01-25 07:30:00+00:00,263.0,261.0,13.96,15.28,,47.59359,-54.27349
2018-01-25 07:40:00+00:00,270.0,274.0,13.77,15.41,,47.59359,-54.27349
2018-01-25 07:50:00+00:00,264.0,273.0,12.94,14.26,,47.59359,-54.27349
2018-01-25 08:00:00+00:00,260.0,262.0,11.21,13.11,,47.59359,-54.27349
2018-01-25 08:10:00+00:00,265.0,268.0,10.45,11.81,,47.59359,-54.27349
2018-01-25 08:20:00+00:00,268.0,265.0,11.16,13.0,,47.59359,-54.27349
2018-01-25 08:30:00+00:00,272.0,270.0,13.69,17.49,,47.59359,-54.27349
2018-01-25 08:40:00+00:00,271.0,270.0,12.15,14.26,,47.59359,-54.27349
2018-01-25 08:50:00+00:00,270.0,272.0,12.72,14.99,,47.59359,-54.27349
2018-01-25 09:00:00+00:00,268.0,270.0,12.37,15.22,,47.59359,-54.27349
2018-01-25 09:10:00+00:00,275.0,278.0,14.61,17.07,,47.59359,-54.27349
2018-01-25 09:20:00+00:00,269.0,272.0,13.76,15.54,,47.59359,-54.27349
2018-01-25 09:30:00+00:00,266.0,264.0,14.56,16.9,,47.59359,-54.27349
2018-01-25 09:40:00+00:00,270.0,273.0,11.92,14.11,,47.59359,-54.27349
2018-01-25 09:50:00+00:00,267.0,263.0,14.98,16.88,,47.59359,-54.27349
2018-01-25 10:00:00+00:00,265.0,260.0,13.99,16.18,,47.59359,-54.27349
2018-01-25 10:10:00+00:00,275.0,272.0,14.45,17.72,,47.59359,-54.27349
2018-01-25 10:20:00+00:00,262.0,263.0,16.53,20.6,,47.59359,-54.27349
2018-01-25 10:30:00+00:00,266.0,267.0,16.84,19.55,,47.59359,-54.27349
2018-01-25 10:40:00+00:00,270.0,271.0,15.76,18.29,,47.59359,-54.27349
2018-01-25 10:50:00+00:00,282.0,286.0,15.7,19.05,,47.59359,-54.27349
2018-01-25 11:00:00+00:00,272.0,275.0,13.67,16.14,,47.59359,-54.27349
2018-01-25 11:10:00+00:00,272.0,275.0,14.5,17.42,,47.59359,-54.27349
2018-01-25 11:20:00+00:00,265.0,264.0,15.57,18.9,,47.59359,-54.27349
2018-01-25 11:30:00+00:00,266.0,266.0,15.47,18.39,,47.59359,-54.27349
2018-01-25 11:40:00+00:00,269.0,279.0,14.53,19.32,,47.59359,-54.27349
2018-01-25 11:50:00+00:00,266.0,263.0,15.6,19.41,,47.59359,-54.27349
2018-01-25 12:00:00+00:00,270.0,266.0,15.06,17.37,,47.59359,-54.27349
2018-01-25 12:10:00+00:00,275.0,277.0,16.38,19.6,,47.59359,-54.27349
2018-01-25 12:20:00+00:00,274.0,271.0,16.9,20.87,,47.59359,-54.27349
2018-01-25 12:30:00+00:00,267.0,262.0,15.9,18.48,,47.59359,-54.27349
2018-01-25 12:40:00+00:00,271.0,264.0,16.0,19.7,,47.59359,-54.27349
2018-01-25 12:50:00+00:00,274.0,275.0,15.18,18.95,,47.59359,-54.27349
2018-01-25 13:00:00+00:00,263.0,257.0,16.79,19.91,,47.59359,-54.27349
2018-01-25 13:10:00+00:00,272.0,277.0,15.13,18.21,,47.59359,-54.27349
2018-01-25 13:20:00+00:00,264.0,265.0,15.63,19.89,,47.59359,-54.27349
2018-01-25 13:30:00+00:00,267.0,264.0,12.91,15.38,,47.59359,-54.27349
2018-01-25 13:40:00+00:00,270.0,268.0,13.83,15.47,,47.59359,-54.27349
2018-01-25 13:50:00+00:00,273.0,264.0,16.94,19.62,,47.59359,-54.27349
2018-01-25 14:00:00+00:00,275.0,277.0,15.26,16.98,,47.59359,-54.27349
2018-01-25 14:10:00+00:00,284.0,289.0,13.9,16.64,,47.59359,-54.27349
2018-01-25 14:20:00+00:00,267.0,265.0,16.87,19.62,,47.59359,-54.27349
2018-01-25 14:30:00+00:00,270.0,283.0,14.53,17.19,,47.59359,-54.27349
2018-01-25 14:40:00+00:00,274.0,281.0,14.39,17.19,,47.59359,-54.27349
2018-01-25 14:50:00+00:00,263.0,261.0,15.64,18.01,,47.59359,-54.27349
2018-01-25 15:00:00+00:00,273.0,281.0,14.98,17.72,,47.59359,-54.27349
2018-01-25 15:10:00+00:00,263.0,260.0,17.9,21.14,,47.59359,-54.27349
2018-01-25 15:20:00+00:00,270.0,273.0,15.68,17.67,,47.59359,-54.27349
2018-01-25 15:30:00+00:00,273.0,272.0,15.91,17.71,,47.59359,-54.27349
2018-01-25 15:40:00+00:00,260.0,257.0,12.42,15.13,,47.59359,-54.27349
2018-01-25 15:50:00+00:00,268.0,277.0,11.83,13.97,,47.59359,-54.27349
2018-01-25 16:00:00+00:00,268.0,270.0,12.44,14.79,,47.59359,-54.27349
2018-01-25 16:10:00+00:00,268.0,266.0,14.29,15.88,,47.59359,-54.27349
2018-01-25 16:20:00+00:00,269.0,270.0,13.37,15.36,,47.59359,-54.27349
2018-01-25 16:30:00+00:00,262.0,261.0,13.37,15.7,,47.59359,-54.27349
2018-01-25 16:40:00+00:00,269.0,272.0,13.56,15.24,,47.59359,-54.27349
2018-01-25 16:50:00+00:00,269.0,265.0,15.05,18.38,,47.59359,-54.27349
2018-01-25 17:00:00+00:00,263.0,269.0,13.33,16.13,,47.59359,-54.27349
2018-01-25 17:10:00+00:00,269.0,265.0,15.65,18.2,,47.59359,-54.27349
2018-01-25 17:20:00+00:00,262.0,265.0,16.83,20.35,,47.59359,-54.27349
2018-01-25 17:30:00+00:00,263.0,267.0,14.23,15.88,,47.59359,-54.27349
2018-01-25 17:40:00+00:00,262.0,259.0,16.84,19.75,,47.59359,-54.27349
2018-01-25 17:50:00+00:00,264.0,267.0,16.97,20.45,,47.59359,-54.27349
2018-01-25 18:00:00+00:00,272.0,272.0,15.44,17.81,,47.59359,-54.27349
2018-01-25 18:10:00+00:00,268.0,269.0,15.68,18.04,,47.59359,-54.27349
2018-01-25 18:20:00+00:00,271.0,268.0,12.5,14.76,,47.59359,-54.27349
2018-01-25 18:30:00+00:00,275.0,272.0,14.62,17.5,,47.59359,-54.27349
2018-01-25 18:40:00+00:00,266.0,266.0,14.61,17.14,,47.59359,-54.27349
2018-01-25 18:50:00+00:00,264.0,258.0,13.17,14.75,,47.59359,-54.27349
2018-01-25 19:00:00+00:00,270.0,262.0,11.66,14.07,,47.59359,-54.27349
2018-01-25 19:10:00+00:00,258.0,259.0,11.51,12.81,,47.59359,-54.27349
2018-01-25 19:20:00+00:00,265.0,268.0,11.82,13.48,,47.59359,-54.27349
2018-01-25 19:30:00+00:00,270.0,270.0,13.32,15.32,,47.59359,-54.27349
2018-01-25 19:40:00+00:00,274.0,287.0,8.81,10.58,,47.59359,-54.27349
2018-01-25 19:50:00+00:00,269.0,266.0,12.57,14.25,,47.59359,-54.27349
2018-01-25 20:00:00+00:00,267.0,265.0,10.27,11.87,,47.59359,-54.27349
2018-01-25 20:10:00+00:00,272.0,272.0,12.9,15.32,,47.59359,-54.27349
2018-01-25 20:20:00+00:00,265.0,269.0,14.01,16.22,,47.59359,-54.27349
2018-01-25 20:30:00+00:00,265.0,262.0,13.77,15.46,,47.59359,-54.27349
2018-01-25 20:40:00+00:00,278.0,274.0,12.09,14.43,,47.59359,-54.27349
2018-01-25 20:50:00+00:00,275.0,276.0,12.63,15.5,,47.59359,-54.27349
2018-01-25 21:00:00+00:00,274.0,270.0,11.51,14.58,,47.59359,-54.27349
2018-01-25 21:10:00+00:00,274.0,277.0,12.54,14.51,,47.59359,-54.27349
2018-01-25 21:20:00+00:00,262.0,264.0,12.12,13.51,,47.59359,-54.27349
2018-01-25 21:30:00+00:00,265.0,267.0,9.3,10.63,,47.59359,-54.27349
2018-01-25 21:40:00+00:00,267.0,263.0,9.77,11.39,,47.59359,-54.27349
2018-01-25 21:50:00+00:00,259.0,265.0,9.71,11.22,,47.59359,-54.27349
2018-01-25 22:00:00+00:00,269.0,269.0,10.87,12.27,,47.59359,-54.27349
2018-01-25 22:10:00+00:00,272.0,268.0,9.58,10.87,,47.59359,-54.27349
2018-01-25 22:20:00+00:00,263.0,261.0,9.32,10.45,,47.59359,-54.27349
2018-01-25 22:30:00+00:00,270.0,266.0,10.12,13.27,,47.59359,-54.27349
2018-01-25 22:40:00+00:00,271.0,269.0,11.63,14.5,,47.59359,-54.27349
2018-01-25 22:50:00+00:00,265.0,270.0,11.35,13.39,,47.59359,-54.27349
2018-01-25 23:00:00+00:00,266.0,258.0,11.58,13.93,,47.59359,-54.27349
2018-01-25 23:10:00+00:00,262.0,261.0,11.41,13.48,,47.59359,-54.27349
2018-01-25 23:20:00+00:00,274.0,274.0,11.02,12.68,,47.59359,-54.27349
2018-01-25 23:30:00+00:00,280.0,285.0,11.22,13.16,,47.59359,-54.27349
2018-01-25 23:40:00+00:00,281.0,283.0,12.14,13.06,,47.59359,-54.27349
2018-01-25 23:50:00+00:00,296.0,283.0,10.87,12.72,,47.59359,-54.27349
